Date String (YYYY-MM-DD hh:mm:ss) UTC,Instrument flags,Ambient pressure (hPa),Sample flow (lpm),Bypass flow (lpm),Sample temperature (°C),Ambient temperature (°C),ASC tube jacket temperature (°C),LED temperature (°C),Box temperature (°C),Sample RH (%),Span deviation,Mass concentration (μg/m³),Mass concentration (μg/m³),Mass concentration (μg/m³)
DateTimeUTC,F1_M11,P_M11,Q1_M11,Q2_M11,T1_M11,T2_M11,T3_M11,T4_M11,T5_M11,U1_M11,ZSPAN_M11,X0_M11,X2_M11,X1_M11
2022-02-20 20:00:00,,0817.3,5.01,0.00,25.6,25.0,00.0,34.4,27.6,04.0,0000.0,0004.55,0000.54,0000.37
2022-02-20 20:01:00,,0817.3,5.01,0.00,25.6,25.0,00.0,34.4,27.6,04.1,0000.0,0004.66,0000.54,0000.37
2022-02-20 20:02:00,,0817.2,4.99,0.00,25.7,25.1,00.0,34.4,27.6,04.6,0000.0,0004.26,0000.55,0000.37
2022-02-20 20:03:00,,0817.2,5.00,0.00,25.7,25.1,00.0,34.5,27.6,03.9,0000.0,0003.31,0000.57,0000.38
2022-02-20 20:04:00,,0817.1,5.01,0.00,25.7,25.1,00.0,34.5,27.6,03.7,0000.0,0003.35,0000.58,0000.38
2022-02-20 20:05:00,,0817.1,4.99,0.00,25.7,25.1,00.0,34.5,27.6,03.4,0000.0,0003.36,0000.58,0000.38
2022-02-20 20:06:00,,0817.1,5.00,0.00,25.7,25.1,00.0,34.5,27.6,03.4,0000.0,0003.40,0000.57,0000.38
2022-02-20 20:07:00,,0817.1,5.01,0.00,25.8,25.1,00.0,34.5,27.7,04.0,0000.0,0003.12,0000.57,0000.38
2022-02-20 20:08:00,,0817.1,5.00,0.00,25.8,25.1,00.0,34.6,27.7,03.9,0000.0,0003.10,0000.57,0000.38
2022-02-20 20:09:00,,0817.0,5.01,0.00,25.8,25.2,00.0,34.6,27.7,03.4,0000.0,0002.86,0000.54,0000.38
2022-02-20 20:10:00,,0817.1,4.99,0.00,25.8,25.1,00.0,34.6,27.7,03.5,0000.0,0002.39,0000.51,0000.37
2022-02-20 20:11:00,,0817.1,5.02,0.00,25.8,25.2,00.0,34.6,27.7,03.6,0000.0,0001.59,0000.51,0000.37
2022-02-20 20:12:00,,0817.0,4.99,0.00,25.8,25.2,00.0,34.7,27.8,03.9,0000.0,0001.47,0000.49,0000.37
2022-02-20 20:13:00,,0817.0,4.99,0.00,25.9,25.2,00.0,34.7,27.8,04.2,0000.0,0001.45,0000.48,0000.37
2022-02-20 20:14:00,,0817.0,5.02,0.00,25.9,25.2,00.0,34.7,27.8,04.4,0000.0,0001.44,0000.48,0000.37
2022-02-20 20:15:00,,0817.0,4.99,0.00,25.9,25.2,00.0,34.7,27.8,04.3,0000.0,0001.41,0000.47,0000.37
2022-02-20 20:16:00,,0817.1,5.00,0.00,25.9,25.2,00.0,34.7,27.8,04.0,0000.0,0001.57,0000.49,0000.37
2022-02-20 20:17:00,,0817.1,5.00,0.00,25.9,25.2,00.0,34.7,27.8,03.1,0000.0,0001.45,0000.50,0000.37
2022-02-20 20:18:00,,0817.0,4.99,0.00,26.0,25.3,00.0,34.7,27.8,03.1,0000.0,0000.94,0000.49,0000.37
2022-02-20 20:19:00,,0817.1,4.99,0.00,26.0,25.3,00.0,34.8,27.9,03.2,0000.0,0000.89,0000.48,0000.36
2022-02-20 20:20:00,,0817.1,5.01,0.00,26.0,25.3,00.0,34.8,27.9,03.1,0000.0,0000.91,0000.48,0000.36
2022-02-20 20:21:00,,0817.0,5.00,0.00,26.0,25.3,00.0,34.8,27.9,03.4,0000.0,0000.89,0000.48,0000.36
2022-02-20 20:22:00,,0817.0,4.98,0.00,26.1,25.3,00.0,34.8,27.9,03.5,0000.0,0000.88,0000.48,0000.36
2022-02-20 20:23:00,,0816.9,5.01,0.00,26.1,25.4,00.0,34.8,27.9,03.0,0000.0,0000.88,0000.48,0000.36
2022-02-20 20:24:00,,0817.0,5.00,0.00,26.1,25.4,00.0,34.9,28.0,02.9,0000.0,0000.85,0000.47,0000.36
2022-02-20 20:25:00,,0817.1,4.98,0.00,26.1,25.4,00.0,34.9,28.0,02.8,0000.0,0000.86,0000.47,0000.37
2022-02-20 20:26:00,,0816.9,5.02,0.00,26.1,25.4,00.0,34.9,28.0,02.9,0000.0,0000.88,0000.48,0000.36
2022-02-20 20:27:00,,0817.1,4.99,0.00,26.2,25.5,00.0,34.9,28.0,03.2,0000.0,0000.83,0000.49,0000.36
2022-02-20 20:28:00,,0817.2,4.99,0.00,26.2,25.5,00.0,34.9,28.1,02.9,0000.0,0000.81,0000.49,0000.35
2022-02-20 20:29:00,,0817.1,5.03,0.00,26.2,25.5,00.0,35.0,28.1,02.7,0000.0,0000.85,0000.48,0000.35
2022-02-20 20:30:00,,0816.9,5.00,0.00,26.2,25.5,00.0,35.0,28.1,02.8,0000.0,0001.70,0000.49,0000.35
2022-02-20 20:31:00,,0816.8,4.99,0.00,26.3,25.6,00.0,35.0,28.2,02.8,0000.0,0001.91,0000.50,0000.34
2022-02-20 20:32:00,,0816.8,5.02,0.00,26.3,25.6,00.0,35.0,28.2,02.8,0000.0,0002.25,0000.51,0000.34
2022-02-20 20:33:00,,0817.0,5.00,0.00,26.3,25.6,00.0,35.1,28.2,02.6,0000.0,0002.32,0000.54,0000.35
2022-02-20 20:34:00,,0817.1,4.99,0.00,26.3,25.6,00.0,35.1,28.2,02.8,0000.0,0002.36,0000.56,0000.36
2022-02-20 20:35:00,,0817.2,5.01,0.00,26.4,25.7,00.0,35.1,28.3,03.0,0000.0,0002.34,0000.55,0000.35
2022-02-20 20:36:00,,0817.0,4.99,0.00,26.4,25.7,00.0,35.1,28.3,02.9,0000.0,0002.82,0000.56,0000.35
2022-02-20 20:37:00,,0816.9,5.01,0.00,26.4,25.7,00.0,35.2,28.3,02.6,0000.0,0003.46,0000.59,0000.36
2022-02-20 20:38:00,,0816.8,5.00,0.00,26.4,25.7,00.0,35.2,28.3,02.7,0000.0,0003.38,0000.57,0000.36
2022-02-20 20:39:00,,0816.8,5.00,0.00,26.4,25.8,00.0,35.2,28.3,03.0,0000.0,0003.33,0000.56,0000.36
2022-02-20 20:40:00,,0816.9,5.01,0.00,26.5,25.8,00.0,35.2,28.4,03.3,0000.0,0003.32,0000.56,0000.37
2022-02-20 20:41:00,,0816.8,5.01,0.00,26.5,25.8,00.0,35.2,28.4,03.0,0000.0,0002.43,0000.55,0000.37
2022-02-20 20:42:00,,0816.8,4.99,0.00,26.5,25.8,00.0,35.3,28.4,03.0,0000.0,0002.19,0000.54,0000.38
2022-02-20 20:43:00,,0816.8,4.99,0.00,26.5,25.8,00.0,35.3,28.4,03.4,0000.0,0002.06,0000.54,0000.39
2022-02-20 20:44:00,,0816.7,5.01,0.00,26.5,25.9,00.0,35.3,28.4,04.3,0000.0,0002.80,0000.52,0000.39
2022-02-20 20:45:00,,0816.7,4.99,0.00,26.5,25.9,00.0,35.3,28.5,05.2,0000.0,0002.82,0000.53,0000.41
2022-02-20 20:46:00,,0816.6,4.99,0.00,26.6,25.9,00.0,35.4,28.5,06.9,0000.0,0002.95,0000.58,0000.44
2022-02-20 20:47:00,,0816.7,5.00,0.00,26.6,25.9,00.0,35.4,28.4,07.8,0000.0,0002.96,0000.62,0000.48
2022-02-20 20:48:00,,0816.7,4.99,0.00,26.6,25.9,00.0,35.4,28.4,07.7,0000.0,0002.99,0000.67,0000.54
2022-02-20 20:49:00,,0816.7,5.00,0.00,26.6,25.9,00.0,35.4,28.5,07.6,0000.0,0003.52,0000.77,0000.60
2022-02-20 20:50:00,,0816.8,5.00,0.00,26.6,25.9,00.0,35.4,28.4,07.7,0000.0,0003.86,0000.84,0000.68
2022-02-20 20:51:00,,0816.7,4.99,0.00,26.6,25.9,00.0,35.4,28.4,07.9,0000.0,0004.39,0000.95,0000.75
2022-02-20 20:52:00,,0816.6,5.02,0.00,26.6,25.9,00.0,35.4,28.5,07.2,0000.0,0004.58,0001.02,0000.81
2022-02-20 20:53:00,,0816.7,5.00,0.00,26.6,25.9,00.0,35.5,28.5,06.5,0000.0,0004.76,0001.10,0000.86
2022-02-20 20:54:00,,0816.5,4.99,0.00,26.6,25.9,00.0,35.5,28.5,05.6,0000.0,0004.79,0001.14,0000.89
2022-02-20 20:55:00,,0816.8,5.02,0.00,26.6,26.0,00.0,35.5,28.5,05.9,0000.0,0003.93,0001.21,0000.92
2022-02-20 20:56:00,,0816.7,5.00,0.00,26.7,26.0,00.0,35.5,28.5,06.3,0000.0,0004.85,0001.24,0000.94
2022-02-20 20:57:00,,0816.6,4.99,0.00,26.7,26.0,00.0,35.5,28.5,06.9,0000.0,0005.42,0001.28,0000.96
2022-02-20 20:58:00,,0816.7,5.01,0.00,26.7,26.0,00.0,35.5,28.6,07.5,0000.0,0005.41,0001.35,0000.99
2022-02-20 20:59:00,,0816.6,5.00,0.00,26.7,26.0,00.0,35.6,28.6,06.3,0000.0,0004.86,0001.36,0000.99
